| time (UTC) | temp F | wind direction | speed knots | gust knots | rain 1hr in | rain 24hr in | rain mn in | humidity % | barometer mb |
| 20260502192132 | 77 | 48 | 7.0 | 8.7 | 0.00 | 0.00 | 0.00 | 35 | 1016.0 |
| 20260502191132 | 75 | 60 | 3.5 | 5.2 | 0.00 | 0.00 | 0.00 | 37 | 1016.1 |
| 20260502190129 | 75 | 32 | 7.8 | 12.2 | 0.00 | 0.00 | 0.00 | 36 | 1016.3 |
| 20260502185121 | 75 | 16 | 6.1 | 8.7 | 0.00 | 0.00 | 0.00 | 37 | 1016.3 |
| 20260502184125 | 75 | 21 | 8.7 | 10.4 | 0.00 | 0.00 | 0.00 | 37 | 1016.4 |
| 20260502183121 | 74 | 7 | 4.3 | 6.1 | 0.00 | 0.00 | 0.00 | 37 | 1016.5 |
| 20260502182138 | 73 | 36 | 7.0 | 10.4 | 0.00 | 0.00 | 0.00 | 38 | 1016.4 |
| 20260502181138 | 73 | 8 | 7.0 | 8.7 | 0.00 | 0.00 | 0.00 | 38 | 1016.6 |
| 20260502180130 | 73 | 29 | 7.0 | 8.7 | 0.00 | 0.00 | 0.00 | 37 | 1016.5 |
| 20260502170122 | 69 | 344 | 7.0 | 10.4 | 0.00 | 0.00 | 0.00 | 41 | 1016.4 |
| 20260502164138 | 67 | 357 | 7.8 | 10.4 | 0.00 | 0.00 | 0.00 | 43 | 1016.4 |
| 20260502163132 | 67 | 350 | 8.7 | 13.9 | 0.00 | 0.00 | 0.00 | 43 | 1016.4 |
| 20260502162129 | 66 | 8 | 7.0 | 10.4 | 0.00 | 0.00 | 0.00 | 45 | 1016.3 |
| 20260502161124 | 65 | 6 | 5.2 | 7.0 | 0.00 | 0.00 | 0.00 | 45 | 1016.5 |
| 20260502160122 | 65 | 17 | 5.2 | 8.7 | 0.00 | 0.00 | 0.00 | 46 | 1016.5 |
| 20260502152136 | 64 | 357 | 7.0 | 11.3 | 0.00 | 0.00 | 0.00 | 47 | 1016.3 |
| 20260502151136 | 63 | 357 | 6.1 | 8.7 | 0.00 | 0.00 | 0.00 | 47 | 1016.3 |
| 20260502150134 | 61 | 350 | 1.7 | 2.6 | 0.00 | 0.00 | 0.00 | 50 | 1016.3 |
| 20260502130125 | 59 | 0 | 2.6 | 3.5 | 0.00 | 0.00 | 0.00 | 55 | 1015.8 |
| 20260502123135 | 59 | 295 | 0.0 | 0.9 | 0.00 | 0.00 | 0.00 | 53 | 1015.8 |
| 20260502122135 | 60 | 12 | 1.7 | 2.6 | 0.00 | 0.00 | 0.00 | 52 | 1015.6 |
| 20260502121156 | 58 | 23 | 2.6 | 3.5 | 0.00 | 0.00 | 0.00 | 55 | 1015.5 |
| 20260502120131 | 58 | 296 | 1.7 | 1.7 | 0.00 | 0.00 | 0.00 | 56 | 1015.6 |
| 20260502115154 | 58 | 18 | 1.7 | 2.6 | 0.00 | 0.00 | 0.00 | 55 | 1015.7 |
| 20260502114149 | 58 | 325 | 2.6 | 2.6 | 0.00 | 0.00 | 0.00 | 55 | 1015.7 |
| 20260502113126 | 59 | 329 | 2.6 | 3.5 | 0.00 | 0.00 | 0.00 | 55 | 1015.6 |
| 20260502112124 | 60 | 190 | 0.9 | 1.7 | 0.00 | 0.00 | 0.00 | 52 | 1015.5 |
| 20260502111130 | 59 | 0.0 | 0.9 | 0.00 | 0.00 | 0.00 | 53 | 1015.6 | |
| 20260502110143 | 60 | 253 | 2.6 | 3.5 | 0.00 | 0.00 | 0.00 | 53 | 1015.5 |
| 20260502105131 | 60 | 225 | 1.7 | 1.7 | 0.00 | 0.00 | 0.00 | 52 | 1015.5 |
| 20260502104133 | 60 | 218 | 3.5 | 4.3 | 0.00 | 0.00 | 0.00 | 52 | 1015.4 |
| 20260502103126 | 60 | 221 | 1.7 | 1.7 | 0.00 | 0.00 | 0.00 | 53 | 1015.4 |
| 20260502102126 | 61 | 0.0 | 0.9 | 0.00 | 0.00 | 0.00 | 49 | 1015.4 | |
| 20260502101128 | 61 | 191 | 1.7 | 1.7 | 0.00 | 0.00 | 0.00 | 49 | 1015.3 |
| 20260502100118 | 61 | 95 | 0.9 | 1.7 | 0.00 | 0.00 | 0.00 | 50 | 1015.3 |
| 20260502091153 | 62 | 193 | 0.9 | 0.9 | 0.00 | 0.00 | 0.00 | 47 | 1015.2 |
| 20260502090127 | 61 | 193 | 0.9 | 1.7 | 0.00 | 0.00 | 0.00 | 48 | 1015.5 |
| 20260502071124 | 63 | 309 | 3.5 | 4.3 | 0.00 | 0.00 | 0.00 | 49 | 1015.3 |
| 20260502070119 | 63 | 307 | 3.5 | 3.5 | 0.00 | 0.00 | 0.00 | 48 | 1015.3 |
| 20260502065142 | 62 | 304 | 3.5 | 4.3 | 0.00 | 0.00 | 0.00 | 50 | 1015.2 |
| 20260502064135 | 62 | 304 | 3.5 | 4.3 | 0.00 | 0.00 | 0.00 | 50 | 1015.2 |
| 20260502063134 | 62 | 323 | 4.3 | 5.2 | 0.00 | 0.00 | 0.00 | 50 | 1015.3 |
| 20260502062134 | 62 | 313 | 4.3 | 5.2 | 0.00 | 0.00 | 0.00 | 51 | 1015.2 |
| 20260502061131 | 63 | 310 | 4.3 | 6.1 | 0.00 | 0.00 | 0.00 | 50 | 1015.2 |
| 20260502060147 | 63 | 309 | 4.3 | 5.2 | 0.00 | 0.00 | 0.00 | 50 | 1015.2 |
| 20260502055143 | 64 | 307 | 4.3 | 5.2 | 0.00 | 0.00 | 0.00 | 47 | 1015.2 |
| 20260502054125 | 64 | 317 | 3.5 | 4.3 | 0.00 | 0.00 | 0.00 | 49 | 1015.2 |
| 20260502053124 | 64 | 306 | 4.3 | 5.2 | 0.00 | 0.00 | 0.00 | 46 | 1015.2 |
| 20260502052156 | 68 | 318 | 3.5 | 3.5 | 0.00 | 0.00 | 0.00 | 41 | 1015.2 |
| 20260502051137 | 69 | 295 | 3.5 | 3.5 | 0.00 | 0.00 | 0.00 | 38 | 1015.1 |
| 20260502050131 | 69 | 313 | 3.5 | 3.5 | 0.00 | 0.00 | 0.00 | 38 | 1015.2 |
| 20260502045209 | 68 | 308 | 3.5 | 3.5 | 0.00 | 0.00 | 0.00 | 39 | 1015.1 |
| 20260502044129 | 69 | 300 | 3.5 | 3.5 | 0.00 | 0.00 | 0.00 | 38 | 1015.3 |
| 20260502043127 | 69 | 307 | 2.6 | 3.5 | 0.00 | 0.00 | 0.00 | 39 | 1015.2 |
| 20260502042122 | 69 | 323 | 3.5 | 3.5 | 0.00 | 0.00 | 0.00 | 41 | 1015.1 |
| 20260502041144 | 68 | 301 | 3.5 | 3.5 | 0.00 | 0.00 | 0.00 | 41 | 1015.1 |
| 20260502040141 | 68 | 314 | 4.3 | 5.2 | 0.00 | 0.00 | 0.00 | 41 | 1015.0 |
| 20260502035239 | 70 | 328 | 1.7 | 1.7 | 0.00 | 0.00 | 0.00 | 36 | 1015.0 |
| 20260502034156 | 71 | 352 | 0.9 | 1.7 | 0.00 | 0.00 | 0.00 | 35 | 1014.9 |
| 20260502033129 | 71 | 26 | 1.7 | 2.6 | 0.00 | 0.00 | 0.00 | 34 | 1014.8 |
| 20260502032128 | 71 | 0.0 | 0.0 | 0.00 | 0.00 | 0.00 | 32 | 1014.9 | |
| 20260502031129 | 71 | 13 | 0.0 | 0.9 | 0.00 | 0.00 | 0.00 | 34 | 1014.7 |
| 20260502030126 | 72 | 355 | 1.7 | 2.6 | 0.00 | 0.00 | 0.00 | 33 | 1014.6 |
| 20260502025123 | 73 | 311 | 0.0 | 1.7 | 0.00 | 0.00 | 0.00 | 31 | 1014.6 |
| 20260502024123 | 73 | 1 | 1.7 | 1.7 | 0.00 | 0.00 | 0.00 | 32 | 1014.5 |
| 20260502023137 | 73 | 358 | 1.7 | 2.6 | 0.00 | 0.00 | 0.00 | 33 | 1014.5 |
| 20260502022136 | 74 | 3 | 3.5 | 3.5 | 0.00 | 0.00 | 0.00 | 33 | 1014.6 |
| 20260502021131 | 75 | 4 | 1.7 | 2.6 | 0.00 | 0.00 | 0.00 | 33 | 1014.5 |
| 20260502020133 | 75 | 360 | 1.7 | 1.7 | 0.00 | 0.00 | 0.00 | 33 | 1014.5 |
| 20260502015128 | 75 | 358 | 1.7 | 1.7 | 0.00 | 0.00 | 0.00 | 34 | 1014.7 |
| 20260502014151 | 76 | 4 | 3.5 | 4.3 | 0.00 | 0.00 | 0.00 | 32 | 1014.9 |
| 20260502013128 | 76 | 19 | 4.3 | 5.2 | 0.00 | 0.00 | 0.00 | 31 | 1014.7 |
| 20260502012124 | 77 | 352 | 3.5 | 5.2 | 0.00 | 0.00 | 0.00 | 29 | 1014.8 |
| 20260502011125 | 77 | 359 | 4.3 | 6.1 | 0.00 | 0.00 | 0.00 | 28 | 1014.9 |
| 20260502010135 | 78 | 14 | 4.3 | 7.0 | 0.00 | 0.00 | 0.00 | 27 | 1015.0 |
| 20260502005138 | 78 | 32 | 5.2 | 7.0 | 0.00 | 0.00 | 0.00 | 27 | 1015.1 |
| 20260502004133 | 78 | 359 | 6.1 | 7.0 | 0.00 | 0.00 | 0.00 | 27 | 1015.1 |
| 20260502003131 | 78 | 355 | 5.2 | 7.0 | 0.00 | 0.00 | 0.00 | 27 | 1015.1 |
| 20260502002133 | 78 | 359 | 6.1 | 7.8 | 0.00 | 0.00 | 0.00 | 27 | 1015.4 |
| 20260502001133 | 79 | 19 | 7.0 | 8.7 | 0.00 | 0.00 | 0.00 | 27 | 1015.3 |
| 20260502000123 | 79 | 2 | 6.1 | 9.6 | 0.00 | 0.00 | 0.00 | 27 | 1015.5 |
| 20260501235122 | 79 | 28 | 3.5 | 5.2 | 0.00 | 0.00 | 0.00 | 26 | 1015.3 |
| 20260501234123 | 79 | 15 | 3.5 | 4.3 | 0.00 | 0.00 | 0.00 | 26 | 1015.4 |
| 20260501233157 | 80 | 11 | 5.2 | 7.8 | 0.00 | 0.00 | 0.00 | 26 | 1015.6 |
| 20260501232134 | 80 | 55 | 4.3 | 7.8 | 0.00 | 0.00 | 0.00 | 26 | 1015.7 |
| 20260501231135 | 79 | 31 | 4.3 | 7.8 | 0.00 | 0.00 | 0.00 | 27 | 1015.8 |
| 20260501230132 | 79 | 7 | 6.1 | 8.7 | 0.00 | 0.00 | 0.00 | 25 | 1015.8 |
| 20260501225131 | 79 | 93 | 3.5 | 4.3 | 0.00 | 0.00 | 0.00 | 25 | 1016.0 |
| 20260501224151 | 78 | 50 | 3.5 | 5.2 | 0.00 | 0.00 | 0.00 | 26 | 1016.1 |
| 20260501223122 | 78 | 12 | 3.5 | 4.3 | 0.00 | 0.00 | 0.00 | 26 | 1016.2 |
| 20260501222122 | 79 | 67 | 6.1 | 8.7 | 0.00 | 0.00 | 0.00 | 27 | 1016.4 |
| 20260501221138 | 78 | 103 | 1.7 | 3.5 | 0.00 | 0.00 | 0.00 | 28 | 1016.7 |
| 20260501220134 | 78 | 113 | 2.6 | 3.5 | 0.00 | 0.00 | 0.00 | 28 | 1016.8 |
| 20260501215137 | 78 | 78 | 2.6 | 4.3 | 0.00 | 0.00 | 0.00 | 29 | 1017.0 |
| 20260501214131 | 77 | 85 | 3.5 | 5.2 | 0.00 | 0.00 | 0.00 | 29 | 1017.3 |
| 20260501213149 | 77 | 75 | 4.3 | 5.2 | 0.00 | 0.00 | 0.00 | 31 | 1017.3 |
| 20260501212128 | 76 | 59 | 2.6 | 4.3 | 0.00 | 0.00 | 0.00 | 31 | 1017.4 |
| 20260501211123 | 76 | 113 | 2.6 | 5.2 | 0.00 | 0.00 | 0.00 | 29 | 1018.0 |
| 20260501210121 | 76 | 68 | 7.0 | 8.7 | 0.00 | 0.00 | 0.00 | 30 | 1017.7 |
| 20260501205121 | 75 | 9 | 5.2 | 7.8 | 0.00 | 0.00 | 0.00 | 29 | 1017.8 |
| 20260501204136 | 74 | 45 | 5.2 | 7.8 | 0.00 | 0.00 | 0.00 | 30 | 1018.1 |
| 20260501203134 | 74 | 64 | 2.6 | 5.2 | 0.00 | 0.00 | 0.00 | 31 | 1018.3 |
| 20260501202135 | 74 | 8 | 2.6 | 4.3 | 0.00 | 0.00 | 0.00 | 30 | 1018.4 |
| 20260501201132 | 73 | 48 | 4.3 | 7.8 | 0.00 | 0.00 | 0.00 | 27 | 1018.6 |
| 20260501200128 | 73 | 35 | 5.2 | 7.8 | 0.00 | 0.00 | 0.00 | 28 | 1018.5 |
| 20260501195207 | 73 | 26 | 4.3 | 6.1 | 0.00 | 0.00 | 0.00 | 26 | 1018.7 |
| 20260501194122 | 73 | 33 | 6.1 | 7.8 | 0.00 | 0.00 | 0.00 | 31 | 1018.6 |
| 20260501193124 | 72 | 348 | 2.6 | 5.2 | 0.00 | 0.00 | 0.00 | 32 | 1018.8 |